TimePDT,TemperatureF,Dew PointF,Humidity,Sea Level PressureIn,VisibilityMPH,Wind Direction,Wind SpeedMPH,Gust SpeedMPH,PrecipitationIn,Events,Conditions,WindDirDegrees,DateUTC
12:56 AM,46.9,39.0,74,30.33,10.0,Calm,Calm,-,N/A,,Clear,0,2013-03-10 08:56:00
1:56 AM,45.0,37.9,76,30.33,10.0,Calm,Calm,-,N/A,,Clear,0,2013-03-10 09:56:00
3:56 AM,45.0,39.0,80,30.33,10.0,Calm,Calm,-,N/A,,Clear,0,2013-03-10 10:56:00
4:56 AM,46.0,39.0,76,30.32,10.0,Calm,Calm,-,N/A,,Clear,0,2013-03-10 11:56:00
5:56 AM,42.1,37.9,85,30.33,10.0,SE,3.5,-,N/A,,Clear,140,2013-03-10 12:56:00
6:56 AM,42.1,37.9,85,30.34,10.0,SE,3.5,-,N/A,,Clear,130,2013-03-10 13:56:00
7:56 AM,42.1,39.0,89,30.35,10.0,Calm,Calm,-,N/A,,Clear,0,2013-03-10 14:56:00
8:56 AM,48.9,42.1,77,30.36,10.0,Calm,Calm,-,N/A,,Clear,0,2013-03-10 15:56:00
9:56 AM,53.1,44.1,71,30.38,10.0,Calm,Calm,-,N/A,,Clear,0,2013-03-10 16:56:00
10:56 AM,57.0,46.9,69,30.36,10.0,North,4.6,-,N/A,,Clear,360,2013-03-10 17:56:00
11:56 AM,62.1,39.9,44,30.35,10.0,NNW,3.5,-,N/A,,Clear,340,2013-03-10 18:56:00
12:56 PM,64.0,35.1,34,30.34,10.0,NNW,6.9,-,N/A,,Clear,340,2013-03-10 19:56:00
1:56 PM,66.9,37.9,34,30.31,10.0,North,10.4,-,N/A,,Clear,350,2013-03-10 20:56:00
2:56 PM,69.1,30.9,24,30.29,10.0,Variable,4.6,-,N/A,,Clear,0,2013-03-10 21:56:00
3:56 PM,68.0,37.9,33,30.29,10.0,North,10.4,-,N/A,,Clear,350,2013-03-10 22:56:00
4:56 PM,68.0,37.0,32,30.28,10.0,NNW,9.2,-,N/A,,Clear,340,2013-03-10 23:56:00
5:56 PM,64.0,43.0,46,30.27,10.0,NNW,9.2,-,N/A,,Clear,330,2013-03-11 00:56:00
6:56 PM,60.1,43.0,53,30.27,10.0,NNW,8.1,-,N/A,,Clear,340,2013-03-11 01:56:00
7:56 PM,57.9,43.0,58,30.28,10.0,NNW,15.0,19.6,N/A,,Clear,340,2013-03-11 02:56:00
8:56 PM,53.1,48.9,86,30.30,10.0,NW,6.9,-,N/A,,Clear,310,2013-03-11 03:56:00
9:56 PM,53.1,46.0,77,30.30,10.0,Calm,Calm,-,N/A,,Clear,0,2013-03-11 04:56:00
10:56 PM,52.0,46.0,80,30.30,10.0,Calm,Calm,-,N/A,,Clear,0,2013-03-11 05:56:00
11:56 PM,51.1,46.0,83,30.30,10.0,Calm,Calm,-,N/A,,Clear,0,2013-03-11 06:56:00
12:56 AM,50.0,45.0,83,30.28,10.0,Calm,Calm,-,N/A,,Clear,0,2013-03-11 07:56:00